Location: Long Geng
(2.6167°N, 114.1333°E)
Time: 23:57:05
(UTC+00:00)

USA 142 - Pass Details

Date: 14 May 2021
Orbit: 574 x 34749 km, 29.2° (Epoch: 23 June)

Event Time Altitude Azimuth Distance (km) Brightness Sun altitude
Rises 12:09:28 0° 295° (WNW) 5,054 9.6 -24.9°
Reaches altitude 10° 12:13:54 10° 289° (WNW) 2,843 8.0 -25.9°
Enters shadow 12:18:27 44° 231° (SW) 867 4.4 -27.0°
